Startseite
Über Mich
AHP4
Galerie
Sehschlangen
Tourenbuch
Bookmarks
Elektronik
Bewertung
Geschichten
[Tagesmessung] [Jahreswerte] [Information]

Messwerte vom 21.04.2022

Die letzten Messwerte von 23:58:45 Uhr:
KategorieMesswert
Temperatur [°C]8
Luftdruck [mBar]997
Sonneneinstrahlung0
Wind [km/h]0 aus Nord
Niederschlag [l/m²]0
rel.Luftfeucht.96.6%
CO2 [ppm]558

Diagramme
Messwerte vom 21.04.2022
Tagesaggregation
KategorieMinimumMaximumSchnittSumme
Temperatur [°C]4138.7354
Luftdruck [mBar]9961000998.0125
Sonneneinstrahlung230114.0813
Wind [km/h]10
rF [%]66.796.680.35
Niederschlag [l/m²]0.2575
CO2 [ppm]401785627.3
Einordnung alsVegetationstag

Messungen an benachbarten Tagen: Zur Jahresaggregation 2022
Tabelle aller Messwerte
UhrzeitTemperatur [°C]Luftdruck [mBar]SonneWind [km/h]RichtungRegen [l/m²]rF [%]CO2 [ppm]
00:01:47 8 999 0 2 NO 0 76.9 782
00:04:47 8 999 0 2 NO 0 76.3 785
00:07:46 8 999 0 1 N 0 77 781
00:10:46 8 999 0 1 N 0 77.4 759
00:13:47 8 999 0 1 S 0 78 747
00:16:46 7 999 0 1 NW 0 77.8 749
00:19:47 7 999 0 3 N 0 78.8 747
00:22:46 7 999 0 2 W 0 78.7 746
00:25:45 7 999 0 0 NO 0 78.9 740
00:28:46 7 999 0 5 NO 0 78.9 750
00:31:47 8 999 0 3 O 0 79.3 759
00:34:47 7 999 0 5 N 0 78.6 768
00:37:46 7 999 0 1 N 0 78.4 766
00:40:47 7 999 0 5 NW 0 78.5 748
00:43:47 7 999 0 1 N 0 78.8 742
00:46:43 7 998 0 4 W 0 78.7 737
00:49:49 7 999 0 3 N 0 78.5 732
00:52:45 7 998 0 3 NO 0 78.5 726
00:55:46 7 999 0 2 N 0 78.5 731
00:58:44 7 999 0 2 N 0 78.6 743
01:01:47 7 999 0 1 NO 0 79 759
01:04:45 7 998 0 4 N 0 78.7 767
01:07:46 7 998 0 3 NW 0 79.8 774
01:10:48 7 998 0 0 NW 0 79.8 782
01:13:48 7 998 0 0 SO 0 79.7 782
01:16:44 7 999 0 1 N 0 79.8 776
01:19:48 7 998 0 2 N 0 80.2 768
01:22:47 7 999 0 3 NO 0 80.1 769
01:25:47 7 999 0 1 NO 0 80.9 764
01:28:49 7 999 0 2 NO 0 80.9 767
01:31:45 7 999 0 0 NW 0 80.7 761
01:34:47 7 999 0 4 NW 0 81.2 747
01:37:46 7 998 0 1 N 0 81.1 747
01:40:46 7 999 0 4 SW 0 80.9 736
01:43:46 6 998 0 4 N 0 81.4 726
01:46:47 6 998 0 3 N 0 81.2 726
01:49:45 6 998 0 8 N 0 81 741
01:52:45 6 999 0 1 N 0 80.7 747
01:55:50 6 999 0 4 NW 0 80 739
01:58:51 6 999 0 2 NW 0 80 736
02:01:48 6 999 0 1 NO 0 80 741
02:04:47 6 998 0 4 SW 0 80.4 750
02:07:46 6 999 0 3 O 0 80.5 744
02:10:47 6 998 0 2 N 0 80.5 739
02:13:46 6 999 0 1 O 0 80.6 745
02:16:45 6 999 0 0 N 0 80.1 748
02:19:46 6 999 0 0 SO 0 80 750
02:22:46 6 998 0 1 NO 0 79.9 735
02:25:44 6 998 0 2 N 0 79.9 731
02:28:48 6 998 0 4 NW 0 80.3 744
02:31:47 6 1000 0 4 NO 0 80.8 731
02:34:46 6 998 0 6 N 0 81 735
02:37:48 6 998 0 4 N 0 80.7 721
02:40:48 6 998 0 4 N 0 80.6 717
02:43:48 6 998 0 3 NW 0 80.4 703
02:46:47 6 998 0 2 SW 0 80.3 713
02:49:47 6 998 0 0 NW 0 80.8 721
02:52:45 6 998 0 0 O 0 80.7 740
02:55:46 6 999 0 2 NO 0 80.2 736
02:58:46 6 998 0 6 N 0 80.9 729
03:01:45 5 999 0 0 O 0 81.4 705
03:04:48 5 998 0 4 NO 0 81.4 694
03:07:47 5 998 0 4 NW 0 81.7 701
03:10:46 5 998 0 2 NW 0 81.6 702
03:13:46 5 998 0 4 NO 0 82.1 685
03:16:46 5 999 0 3 O 0 82.1 688
03:19:46 5 999 0 1 S 0 82.3 688
03:22:47 5 998 0 1 NO 0 82.3 691
03:25:49 5 999 0 0 O 0 82.2 679
03:28:46 5 998 0 6 S 0 82.3 676
03:31:46 5 998 0 2 NW 0 82.5 677
03:34:48 5 998 0 3 NW 0 82.5 673
03:37:48 5 998 0 4 NO 0 82.9 677
03:40:48 5 998 0 0 O 0 83 685
03:43:47 5 998 0 6 0 82.9 688
03:46:45 5 998 0 1 NO 0 83.5 687
03:49:50 5 998 0 0 O 0 82.6 689
03:52:46 4 998 0 1 SO 0 82.3 688
03:55:49 4 998 0 0 SO 0 82.3 670
03:58:47 4 998 0 0 SO 0 82.3 673
04:01:48 4 998 0 0 SO 0 82.8 679
04:04:45 4 998 0 0 O 0 83.7 674
04:07:47 4 999 0 0 NO 0 84.8 671
04:10:48 5 998 0 1 SO 0 85.4 673
04:13:46 5 998 0 0 N 0 85 668
04:16:46 5 998 0 1 N 0 84.5 672
04:19:44 5 998 0 0 0 84.1 668
04:22:47 5 998 0 3 NW 0 83.8 674
04:25:45 5 998 0 3 NO 0 83.4 666
04:28:46 5 998 0 3 N 0 83 666
04:31:47 5 998 0 0 O 0 82.5 659
04:34:46 5 998 0 2 N 0 82.3 656
04:37:48 5 998 0 1 NW 0 82.1 659
04:40:47 5 998 0 5 NW 0 81.9 665
04:43:46 5 998 0 0 0 81.6 667
04:46:44 5 998 0 0 N 0 81.5 664
04:49:47 5 998 0 5 SW 0 81.6 671
04:52:46 5 998 0 3 O 0 81.7 670
04:55:46 5 998 0 2 N 0 81.6 667
04:58:48 5 998 0 2 NW 0 81.3 666
05:01:46 5 998 0 4 N 0 81.3 671
05:04:47 5 998 0 0 SO 0 81.4 669
05:07:46 5 998 0 1 SO 0 81.6 673
05:10:46 5 998 0 1 SO 0 81.5 664
05:13:43 5 998 0 4 0 81.4 656
05:16:44 5 998 0 4 N 0 81.3 646
05:19:47 5 998 0 1 SW 0 81.3 648
05:22:49 5 998 0 2 NW 0 81.2 659
05:25:45 5 998 0 2 0 81.3 656
05:28:47 6 998 0 2 W 0 81.6 655
05:31:45 5 998 0 1 W 0 81.8 656
05:34:46 5 998 0 1 N 0 81.4 657
05:37:47 5 998 0 0 NO 0 81.7 667
05:40:47 5 998 0 2 N 0 81.8 668
05:43:44 5 998 3 1 N 0 81.7 665
05:46:48 5 998 5 5 W 0 82 659
05:49:49 5 998 8 0 O 0 82.2 660
05:52:46 5 998 11 2 N 0 82.4 662
05:55:46 5 998 15 2 N 0 82.5 656
05:58:51 5 998 19 2 NO 0 82.7 660
06:01:46 5 998 25 2 0 82.7 656
06:04:49 5 998 34 2 NO 0 82.7 661
06:07:48 5 998 45 3 O 0 82.7 656
06:10:47 5 998 59 1 N 0 82.7 659
06:13:48 5 998 72 2 NW 0 82.9 648
06:16:47 5 998 82 1 O 0 82.9 648
06:19:48 5 998 90 3 N 0 83 653
06:22:48 5 998 99 2 SO 0 83.1 662
06:25:49 5 998 100 2 N 0 83.3 664
06:28:47 5 998 96 2 N 0 83.1 661
06:31:51 5 998 100 0 NW 0 82.7 662
06:34:48 5 998 102 2 S 0 82.7 662
06:37:49 5 998 108 3 N 0 82.7 662
06:40:48 6 998 121 0 NO 0 82.4 653
06:43:48 6 998 141 0 NO 0 82.3 653
06:46:46 6 998 151 5 W 0 82.2 641
06:49:47 6 998 163 3 N 0 81.9 649
06:52:46 6 998 176 1 N 0 81.9 655
06:55:48 6 998 181 0 NO 0 82 653
06:58:49 6 998 181 0 N 0 82.4 664
07:01:47 6 998 184 2 O 0 82.7 659
07:04:46 6 998 180 4 N 0 83.5 645
07:07:47 6 998 171 1 N 0 83.3 644
07:10:48 6 998 162 1 W 0 83.2 647
07:13:49 6 998 159 2 SO 0 83.3 653
07:16:48 6 998 163 2 N 0 83.2 656
07:19:48 6 998 165 1 O 0 83.4 668
07:22:46 6 998 164 1 O 0 83.6 689
07:25:47 6 998 163 1 NO 0 83.6 703
07:28:49 6 998 164 2 SW 0 83.6 691
07:31:49 6 998 167 3 NO 0 83.9 688
07:34:46 6 998 164 2 N 0 83.9 679
07:37:46 6 998 160 5 O 0 83.8 685
07:40:47 6 998 162 4 NO 0 83.7 685
07:43:45 6 998 161 0 N 0 83.7 695
07:46:44 6 998 161 4 N 0 83.7 708
07:49:47 6 998 160 2 N 0 83.9 711
07:52:49 6 998 162 3 NW 0 84 689
07:55:47 6 998 172 4 N 0 84 686
07:58:47 6 998 176 0 N 0 83.9 685
08:01:49 6 998 185 4 N 0 84 695
08:04:48 6 998 193 3 NO 0 84.1 703
08:07:48 6 998 195 9 NO 0 83.7 709
08:10:47 6 998 190 4 NO 0 83.4 705
08:13:48 6 998 184 2 SO 0 83.3 701
08:16:47 6 998 176 6 NW 0 83.3 696
08:19:47 6 998 172 3 SO 0 83 703
08:22:47 6 998 172 1 NO 0 83.5 705
08:25:45 6 998 175 4 N 0 83.8 715
08:28:47 6 998 181 3 N 0 83.8 711
08:31:49 6 998 188 2 N 0 83.9 708
08:34:48 7 998 187 4 W 0 84.1 708
08:37:48 7 998 186 4 NO 0 83.4 705
08:40:49 7 998 181 2 NO 0 83.2 701
08:43:47 7 998 181 2 NO 0 83.3 702
08:46:47 7 998 180 2 O 0 83.2 704
08:49:47 7 998 183 4 NO 0 83.5 691
08:52:45 7 998 194 4 0 83.5 702
08:55:50 7 998 207 7 N 0 82.2 700
08:58:48 7 998 212 3 N 0 82.3 711
09:01:48 7 998 211 3 SO 0 82.2 712
09:04:47 7 998 211 4 NW 0 81.7 712
09:07:47 7 998 212 1 N 0 80.5 709
09:10:47 7 998 212 2 N 0 80.4 706
09:13:48 8 998 210 2 O 0 80.5 709
09:16:49 8 999 211 3 NO 0 80.4 702
09:19:47 8 998 211 2 N 0 80.4 700
09:22:49 8 998 211 3 NO 0 79.6 713
09:25:46 8 999 212 2 NW 0 79.4 710
09:28:47 8 998 214 5 O 0 79.4 704
09:31:50 8 998 215 8 NW 0 79.3 712
09:34:49 8 998 217 7 NO 0 79.2 718
09:37:47 8 999 216 3 N 0 79 721
09:40:49 8 998 214 0 NW 0 79.2 719
09:43:49 8 998 213 4 NO 0 78.9 716
09:46:48 8 998 213 5 NW 0 78.6 715
09:49:49 8 998 214 2 NO 0 78.9 709
09:52:47 8 998 217 1 NO 0 78.3 715
09:55:47 8 999 219 3 O 0 77.8 719
09:58:46 8 999 220 3 N 0 77.5 713
10:01:46 8 998 218 1 N 0 77.1 723
10:04:46 8 998 216 0 N 0 77.1 726
10:07:47 8 998 218 1 N 0 77 731
10:10:47 9 998 219 3 O 0 76.7 733
10:13:47 9 998 221 5 N 0 76.5 733
10:16:50 9 998 221 2 NW 0 75.9 730
10:19:46 9 998 220 5 N 0 75.9 731
10:22:49 9 999 221 1 O 0 75 736
10:25:50 9 998 221 2 NW 0 74.9 735
10:28:48 9 998 220 1 N 0 75.7 735
10:31:45 10 998 219 1 N 0 75.8 729
10:34:48 9 998 220 2 NO 0 74.8 741
10:37:49 9 998 218 3 NW 0 74.6 740
10:40:45 9 998 217 3 0 74.8 746
10:43:47 9 998 218 3 NW 0 74.7 744
10:46:49 9 998 221 3 NO 0 75.6 746
10:49:46 9 998 221 4 N 0 75.6 744
10:52:47 9 998 221 0 NO 0 75.1 738
10:55:47 10 998 222 1 NO 0 74.8 747
10:58:46 10 998 222 4 NO 0 75.3 741
11:01:47 10 998 221 4 S 0 73.8 741
11:04:47 10 998 221 3 SO 0 73.6 734
11:07:49 10 999 221 7 NO 0 74.4 737
11:10:48 10 998 221 1 NW 0 74.4 743
11:13:48 10 998 220 10 N 0 73.2 743
11:16:47 10 998 220 5 N 0 73 749
11:19:49 10 998 220 3 NO 0 72.9 748
11:22:50 10 998 220 5 NO 0 73.3 753
11:25:50 10 998 219 4 N 0 73.2 741
11:28:48 10 998 218 1 NO 0 72.8 753
11:31:45 10 998 216 3 0 72.9 750
11:34:48 10 998 215 9 NW 0 73.7 736
11:37:47 10 999 214 0 N 0 73.8 748
11:40:49 10 998 213 2 NW 0 73.8 748
11:43:47 10 999 217 2 NO 0 73.9 753
11:46:48 10 999 218 3 NO 0 74 752
11:49:45 10 999 215 5 N 0 74.1 749
11:52:48 10 998 213 5 NW 0 74.6 744
11:55:45 10 998 212 4 N 0 74 746
11:58:47 10 998 213 4 NO 0 74.1 745
12:01:46 10 998 214 1 N 0 74.6 752
12:04:48 10 998 214 3 O 0 74.5 743
12:07:48 10 998 214 2 NW 0 74.9 739
12:10:48 10 998 214 2 N 0 74.6 728
12:13:48 10 998 213 5 NO 0 74.5 738
12:16:45 10 998 213 5 O 0 74.5 737
12:19:48 10 998 214 1 NO 0 74.5 733
12:22:47 10 998 213 1 O 0 74.6 737
12:25:47 10 998 213 1 NW 0 74.5 732
12:28:49 10 998 213 1 SO 0 75.3 732
12:31:48 11 998 212 2 N 0 75 744
12:34:45 11 999 212 4 N 0 74.4 743
12:37:47 11 998 213 2 O 0 74 749
12:40:46 11 998 213 1 NW 0 73.6 741
12:43:47 11 998 213 3 NO 0 74.3 741
12:46:46 11 998 212 2 N 0 73.3 741
12:49:46 11 998 212 3 O 0 73.3 738
12:52:49 11 998 213 2 NO 0 73.8 744
12:55:47 11 998 216 1 O 0 73.8 747
12:58:47 11 998 217 3 NW 0 74 759
13:01:49 12 998 220 2 N 0 73.1 759
13:04:47 12 998 222 4 NO 0 71.9 769
13:07:49 12 998 222 2 SO 0 71.3 768
13:10:49 12 998 221 3 NW 0 71 769
13:13:47 12 998 220 1 SO 0 71.3 782
13:16:47 12 998 220 4 W 0 70.7 779
13:19:48 12 998 220 3 NW 0 70.4 779
13:22:49 12 998 221 1 NW 0 71 772
13:25:48 12 998 222 2 SW 0 70.7 766
13:28:50 12 998 223 4 O 0 70.8 762
13:31:48 12 998 223 5 NW 0 69.7 767
13:34:48 12 998 223 4 O 0 68 774
13:37:47 12 998 222 3 N 0 68.2 766
13:40:48 12 998 220 4 0 68.8 762
13:43:48 12 998 219 2 O 0 69.8 759
13:46:48 12 998 219 6 NW 0 68.4 773
13:49:48 12 998 219 4 N 0 69.5 779
13:52:47 12 999 219 1 NO 0 70.1 779
13:55:50 12 998 218 2 NW 0 69.9 776
13:58:46 12 998 216 7 N 0 70.2 775
14:01:48 12 998 218 5 N 0 70.5 777
14:04:47 12 998 220 2 O 0 70.4 770
14:07:49 12 998 219 3 NW 0 70.2 779
14:10:50 12 998 219 8 NW 0 69.6 775
14:13:48 12 998 219 5 N 0 69.8 779
14:16:48 12 998 218 6 N 0 70 776
14:19:48 12 998 217 4 N 0 70.2 776
14:22:47 12 998 217 2 W 0 70.5 773
14:25:48 12 998 218 5 NO 0 70 773
14:28:47 12 998 217 2 N 0 70.8 577
14:31:47 12 998 217 6 O 0 70.6 582
14:34:47 12 998 216 4 NW 0 70.5 585
14:37:46 12 998 214 4 N 0 70.5 586
14:40:49 12 998 211 5 N 0 70.2 580
14:43:48 12 998 210 3 NO 0 70 582
14:46:46 12 998 212 3 N 0 70.5 574
14:49:47 12 998 216 1 SO 0 70.5 571
14:52:50 12 998 221 4 NO 0 70.2 581
14:55:47 12 998 226 3 NO 0 70.2 583
14:58:48 12 998 225 4 SO 0 69.6 592
15:01:50 12 998 224 3 O 0 68.8 585
15:04:49 12 998 226 3 N 0 69.5 583
15:07:47 13 998 227 4 S 0 68.6 571
15:10:48 13 998 229 6 NO 0 66.7 571
15:13:48 13 998 229 4 N 0 66.9 567
15:16:46 13 998 225 3 O 0 66.8 544
15:19:48 13 998 221 2 NO 0 67.2 534
15:22:46 13 998 214 3 N 0 67.6 535
15:25:50 12 998 216 5 NO 0 67.6 556
15:28:47 12 998 214 3 NW 0 67.9 551
15:31:48 12 998 211 2 NW 0 68.4 557
15:34:49 12 998 209 4 O 0 68.7 550
15:37:47 12 998 202 4 NO 0 69.2 544
15:40:48 12 998 198 7 NO 0 69.9 530
15:43:48 12 998 198 7 NO 0 70.5 524
15:46:47 12 998 205 2 SO 0 71.6 524
15:49:47 12 998 212 3 NO 0 72.1 538
15:52:48 12 998 221 0 N 0 71.6 535
15:55:47 12 998 225 5 N 0 71.3 532
15:58:48 12 998 225 7 NO 0 70.7 521
16:01:46 12 998 225 4 O 0 69.8 524
16:04:49 12 998 221 7 NO 0 69.1 524
16:07:48 12 998 210 7 N 0 69.5 524
16:10:49 12 998 206 2 O 0 69.9 527
16:13:48 12 998 211 1 NW 0 70.6 521
16:16:47 12 998 212 5 NO 0 71.3 518
16:19:47 12 998 212 6 NO 0 71.2 512
16:22:49 12 998 212 10 NW 0 70.5 515
16:25:49 12 998 218 8 SO 0 70.2 506
16:28:48 12 998 223 1 NW 0 70.4 500
16:31:50 12 998 218 3 O 0 70.8 498
16:34:47 12 998 216 3 NO 0 70.8 511
16:37:49 12 998 222 5 N 0 70.4 516
16:40:45 12 998 219 6 0 70.3 516
16:43:48 13 998 225 8 O 0 70.6 480
16:46:50 13 998 230 3 NO 0 70.3 454
16:49:50 13 998 226 5 SO 0 70 456
16:52:50 13 998 207 2 SO 0 69.5 471
16:55:47 12 998 205 3 NO 0 70 472
16:58:46 12 998 215 6 N 0 70.1 462
17:01:47 12 998 219 3 O 0 70.7 459
17:04:49 13 998 223 6 SO 0 71 458
17:07:51 13 998 219 4 SO 0 70.3 459
17:10:49 13 997 217 6 NO 0 69.5 450
17:13:47 13 998 223 5 SO 0 69.1 451
17:16:49 13 998 222 4 NW 0 69.2 448
17:19:49 13 998 218 5 NO 0 69 445
17:22:47 13 998 211 1 NO 0 68.9 442
17:25:49 13 998 213 2 NW 0 68.8 433
17:28:49 13 998 209 3 NW 0 68.7 427
17:31:48 13 998 208 1 NO 0 69.1 422
17:34:50 13 998 208 2 SW 0 69.1 421
17:37:47 12 998 200 1 O 0 69.1 425
17:40:48 12 998 198 5 O 0 70.1 413
17:43:48 12 998 208 1 SO 0 70.4 406
17:46:47 12 998 208 2 N 0 70.6 407
17:49:48 12 997 209 3 O 0 70.7 406
17:52:48 12 998 199 1 SO 0 71 407
17:55:47 12 998 201 6 O 0 71.3 404
17:58:48 12 998 197 4 NO 0 70.9 407
18:01:48 12 997 189 3 O 0 70.8 404
18:04:46 12 998 188 6 N 0 71 407
18:07:47 12 998 187 3 NO 0 70.7 404
18:10:47 12 998 183 1 N 0 71.2 403
18:13:46 12 998 172 4 N 0 71.7 404
18:16:48 12 998 170 2 O 0 72 404
18:19:46 12 997 167 2 O 0 72.6 407
18:22:47 12 997 168 0 O 0 72.8 406
18:25:45 12 998 176 5 0 73 404
18:28:49 12 998 174 3 N 0 73.1 407
18:31:47 12 998 177 2 NO 0 72.8 407
18:34:47 12 997 184 2 O 0 72.9 404
18:37:49 12 998 182 0 O 0 72.8 404
18:40:47 12 997 173 3 NO 0 73.1 403
18:43:48 12 998 175 4 NO 0 73.1 406
18:46:48 12 998 175 4 NO 0 72.8 404
18:49:47 12 998 175 3 NO 0 73.2 403
18:52:51 12 997 168 4 NO 0 73.2 407
18:55:47 12 997 164 4 O 0 73.3 407
18:58:47 12 997 174 0 NO 0 73.5 407
19:01:49 12 998 161 0 SO 0 73.8 407
19:04:47 12 998 137 6 O 0 73.9 407
19:07:47 12 998 140 2 NO 0 73.9 403
19:10:47 12 998 107 2 O 0 74.2 404
19:13:47 12 998 105 2 NO 0 74.5 404
19:16:48 11 998 115 10 N 0 74.6 407
19:19:47 11 998 100 9 N 0 75.2 404
19:22:48 11 998 89 4 NO 0 75.7 404
19:25:47 11 998 97 0 NO 0 76.4 407
19:28:47 11 998 112 2 O 0 77.6 407
19:31:47 11 998 113 3 NO 0 80.2 404
19:34:51 11 998 111 8 NO 0 82.6 404
19:37:46 11 998 117 6 O 0 83.6 404
19:40:47 11 998 126 5 N 0 85.5 403
19:43:47 10 998 123 5 O 0 86.9 404
19:46:49 10 998 121 6 NW 0 89.4 407
19:49:48 10 998 121 1 N 0 89.9 401
19:52:47 10 998 114 7 NW 0 91.1 404
19:55:48 10 998 109 10 N 0 92.4 405
19:58:46 10 998 105 4 N 0 93.3 407
20:01:47 10 998 101 3 N 0 94.4 405
20:04:47 10 998 94 4 O 0 95.2 404
20:07:47 10 998 86 3 NO 0 95.9 407
20:10:49 10 998 78 4 S 0 96.5 418
20:13:49 10 998 70 2 SO 0 96.6 422
20:16:48 9 998 61 5 NO 0 96.6 430
20:19:43 9 998 54 4 0 96.6 424
20:22:47 9 998 47 6 NO 0 96.6 434
20:25:46 9 998 40 1 SO 0 96.6 424
20:28:46 9 998 33 3 N 0 96.6 421
20:31:47 9 998 27 5 O 0 96.6 436
20:34:46 9 998 22 5 S 0 96.6 465
20:37:47 9 998 17 4 SO 0 96.6 480
20:40:50 9 998 12 2 NO 0 96.6 477
20:43:46 9 998 9 2 O 0 96.6 480
20:46:46 9 998 7 1 NO 0 96.6 481
20:49:44 9 998 5 2 O 0 96.6 489
20:52:46 9 998 4 2 0.2575 96.6 495
20:55:45 9 998 4 2 O 0 96.6 498
20:58:48 9 998 0 1 O 0 96.6 497
21:01:45 9 997 0 3 NO 0 96.6 497
21:04:45 9 998 0 0 NO 0 96.6 497
21:07:46 9 998 0 2 NO 0 96.6 483
21:10:46 9 998 0 1 O 0 96.6 489
21:13:47 9 998 0 2 O 0 96.6 498
21:16:46 9 997 0 1 NO 0 96.6 509
21:19:46 9 998 0 0 O 0 96.6 509
21:22:46 9 998 0 1 O 0 96.6 509
21:25:46 9 997 0 1 NO 0 96.6 521
21:28:47 9 998 0 1 NO 0 96.6 532
21:31:46 9 998 0 2 O 0 96.6 547
21:34:46 9 998 0 2 SO 0 96.6 544
21:37:46 9 998 0 0 NO 0 96.6 547
21:40:46 9 997 0 3 NO 0 96.6 538
21:43:46 9 998 0 0 NO 0 96.6 541
21:46:44 9 998 0 2 N 0 96.6 544
21:49:45 9 998 0 4 N 0 96.6 547
21:52:44 9 998 0 3 0 96.6 549
21:55:46 9 998 0 2 O 0 96.6 550
21:58:46 9 998 0 0 N 0 96.6 552
22:01:48 9 998 0 0 N 0 96.6 556
22:04:46 9 997 0 1 O 0 96.6 559
22:07:48 9 998 0 2 N 0 96.6 559
22:10:47 9 998 0 2 NO 0 96.6 559
22:13:44 9 998 0 3 W 0 96.6 547
22:16:48 9 998 0 1 SO 0 96.6 553
22:19:46 9 997 0 4 O 0 96.6 551
22:22:44 9 997 0 3 N 0 96.6 563
22:25:45 9 997 0 0 O 0 96.6 562
22:28:46 9 998 0 5 O 0 96.6 559
22:31:45 9 998 0 0 N 0 96.6 559
22:34:46 9 997 0 0 NW 0 96.6 562
22:37:45 9 998 0 1 O 0 96.6 559
22:40:46 9 997 0 0 0 96.6 560
22:43:47 9 997 0 3 NO 0 96.6 566
22:46:48 9 998 0 0 O 0 96.6 568
22:49:47 9 996 0 3 NO 0 96.6 568
22:52:48 9 997 0 2 N 0 96.6 569
22:55:48 9 996 0 1 NO 0 96.6 569
22:58:46 9 998 0 1 O 0 96.6 565
23:01:47 9 996 0 1 N 0 96.6 563
23:04:48 9 997 0 2 NO 0 96.6 559
23:07:47 9 997 0 2 O 0 96.6 559
23:10:47 9 997 0 0 O 0 96.6 565
23:13:46 9 997 0 2 O 0 96.6 568
23:16:46 9 997 0 1 O 0 96.6 568
23:19:46 9 997 0 1 O 0 96.6 563
23:22:46 9 997 0 2 N 0 96.6 565
23:25:48 9 997 0 0 NO 0 96.6 564
23:28:46 9 997 0 1 N 0 96.6 559
23:31:46 9 997 0 1 O 0 96.6 565
23:34:47 8 997 0 0 O 0 96.6 568
23:37:45 8 997 0 0 O 0 96.6 571
23:40:48 8 997 0 2 SW 0 96.6 566
23:43:47 8 997 0 2 NO 0 96.6 569
23:46:44 8 996 0 1 O 0 96.6 567
23:49:45 8 997 0 0 O 0 96.6 568
23:52:47 8 997 0 0 O 0 96.6 562
23:55:47 8 996 0 0 O 0 96.6 562
23:58:45 8 997 0 0 N 0 96.6 558

Letzte Änderung : 04-Jan-2022
Copyright Jens Köhler, Wolfsburg, Obere Dorfstraße 10d